DELTA 1 DEB, 18671

Orbit data source: Space-Track

DELTA 1 DEB, 18671 is space debris in SSO originally from a launch on Tue, 06 Nov 1973 UTC launched from the Air Force Western Test Range (AFWTR). Debris objects in space refer to the collection of defunct objects orbiting the Earth. Examples of debris include non-operational satellites, rocket bodies, and fragments generated from explosions, collisions, or faulty payload assembly.

Loading next visibility...
Identifier
18671, 1973-086GZ
Orbit
SSO
Country
Flag of USUS
Related business
Manufacturer
Unknown
Mission
Spacecraft
Bus & Motor
Unknown
Mass
Unknown
Launch date (UTC)
1973-11-06 (53 years ago)
Launch vehicle
Unknown
Launch site
Air Force Western Test Range (AFWTR)
Object type
Payload
Rocket body
Debris
Shape & HBR
Unknown shape, 1.1 m
Radar Cross Section
Medium (>0.1 m² and <1 m²)

Expand to show TLE details & history
Last TLE update: 3 days ago

TLE from 3 days ago
0 DELTA 1 DEB
1 18671U 73086GZ  26170.33447551  .00000154  00000-0  14470-2 0  9993
2 18671 101.8514 125.8493 0114796  11.7962 144.5771 12.39863695636692
Epoch: 2026-06-19T08:01Z
TLE epoch observation values (Epoch: 2026-06-19T08:01:38.684Z)
Latitude
22.37488°
Longitude
-77.19516°
Altitude
1,583.702 km
Speed
7.045 km/s
True Right ascension
20h 43m 07s
True Declination
22° 15' 60"
Sunlit
Object was in daylight at epoch
Visualization orbit readout
Latitude
Unknown
Longitude
Unknown
Altitude
Unknown
Speed
Unknown
Apparent Right ascension
Unknown
Apparent Declination
Unknown
Sunlit
N/A
Visualization observer readout
Local Sidereal Time
05:34:30
Azimuth
Unknown
Elevation
Unknown
Doppler factor
Unknown
Orbital elements
Apogee altitude
1,595.239 km
Perigee altitude
1,414.254 km
Semi-major axis
7,882.884 km
Eccentricity
0.01148
Inclination
101.8514°
RAAN
125.8493°
Arg. of periapsis
11.7962°
True anomaly
145.33071°
Mean anomaly
144.5771°
Eccentric anomaly
144.95479°
Mean motion
3.1011 °/min
Orbital period
116.09 mins
BSTAR
0.001447
Loading maneuver chart data...
Computing Atmospheric mass density...
Loading historical data...
Loading historical data...
Loading historical data...
Loading historical data...
Loading historical data...
Loading historical data...
Loading historical data...

Documentation

Showing up to 5 results
|